Regional Weather Roundup
Issued by NWS

Home | Current Version | Previous Version | Graphics & Text | Print | Product List | Glossary On
Versions: 1 2 3 4 5 6 7 8 9 10 11 12 13 14 15 16 17 18 19 20 21 22 23 24 25 26 27 28 29 30 31 32 33 34 35 36 37 38 39 40 41 42 43 44 45 46 47 48 49 50
000
ASUS43 KIND 230900
RWRIN

WEATHER ROUNDUP FOR INDIANA
NATIONAL WEATHER SERVICE INDIANAPOLIS IN
500 AM EDT FRI JUN 23 2017

NOTE: "FAIR" INDICATES FEW OR NO CLOUDS BELOW 12,000 FEET WITH NO
SIGNIFICANT WEATHER AND/OR OBSTRUCTIONS TO VISIBILITY.

* - STATION DOES NOT REPORT WEATHER SUCH AS PRECIPITATION OR FOG.

+ - STATION NOT QUALITY CONTROLLED BY THE NATIONAL WEATHER SERVICE.
    USE DATA WITH CAUTION...ESPECIALLY DEWPOINT AND RELATIVE
    HUMIDITY OBSERVATIONS.

INZ001>003-010>013-019-020-231000-
NORTHWEST INDIANA

CITY           SKY/WX    TMP DP  RH WIND       PRES   REMARKS
GARY /AIRPORT/ CLOUDY    76  71  84 SW5       29.66S
KNOX *+        CLOUDY    72  72 100 SW9       29.68S
MICHIGAN CITY+ CLOUDY    72  72 100 SW8       29.67S
MONTICELLO +   DRIZZLE   72  71  96 SW6       29.68F
RENSSELAER +   CLOUDY    73  70  88 SW8       29.68F

$$

LMZ046-743>745-231000-
SOUTHERN LAKE MICHIGAN

STATION/POSITION TIME  TEMP    WIND        PRES    WAVE
                       AIR SEA DIR/SP/G            HT
                 (UTC) (F)     (DEG/KT/KT) (MB)    (FT)
BURNS HARBOR     0840   74     220/ 11/ 17 1004.7F
MICHIGAN CITY    0830   73     200/ 13/ 15   N/A
5NW MICH CITY    0850   71 68  230/  8/ 12   N/A     1

$$

INZ004-005-014>016-021>024-231000-
NORTH CENTRAL INDIANA

CITY           SKY/WX    TMP DP  RH WIND       PRES   REMARKS
GOSHEN         LGT RAIN  71  68  90 SW10      29.67F FOG
PERU/GRISSOM   TSTM      72  72 100 SW8       29.69S FOG
SOUTH BEND     CLOUDY    71  71 100 SW10      29.67S

$$

INZ006>009-017-018-025>027-231000-
NORTHEAST INDIANA

CITY           SKY/WX    TMP DP  RH WIND       PRES   REMARKS
FORT WAYNE     LGT RAIN  72  70  93 SW13      29.70F
KENDALLVILLE + DRIZZLE   70  70 100 SW9       29.70S

$$

INZ028-029-035-036-043>045-051>053-231000-
WEST CENTRAL INDIANA

CITY           SKY/WX    TMP DP  RH WIND       PRES   REMARKS
LAFAYETTE      LGT RAIN  72  72 100 SW10      29.68S FOG
TERRE HAUTE    CLOUDY    76  72  87 SW14G20   29.72F

$$

INZ030>032-037>040-046>048-054>057-064-065-231000-
CENTRAL INDIANA

CITY           SKY/WX    TMP DP  RH WIND       PRES   REMARKS
GREENWOOD *+   CLOUDY    75  71  86 SW10G16   29.75F
INDIANAPOLIS   CLOUDY    75  72  90 S15       29.72F
-EAGLE CREEK   CLOUDY    75  71  87 MISG      29.72F
KOKOMO +       CLOUDY    72  71  97 S16       29.70F
MT COMFORT *+  CLOUDY    73  72  94 S12       29.74F
SHELBYVILLE    CLOUDY    76  70  82 S12       29.74F

$$

INZ033-034-041-042-049-050-058-059-231000-
EAST CENTRAL INDIANA

CITY           SKY/WX    TMP DP  RH WIND       PRES   REMARKS
MUNCIE         CLOUDY    74  71  91 SW10      29.73F
RICHMOND +     CLOUDY    70  70 100 SW13      29.78F

$$

INZ060-061-067>069-081>083-085>088-231000-
SOUTHWEST INDIANA

CITY           SKY/WX    TMP DP  RH WIND       PRES   REMARKS
EVANSVILLE     CLOUDY    76  72  87 S9        29.77S
HUNTINGBURG *+ CLOUDY    75 N/A N/A S10       29.77F

$$

INZ062-063-066-070>080-084-089>092-231000-
SOUTH CENTRAL AND SOUTHEAST INDIANA

CITY           SKY/WX    TMP DP  RH WIND       PRES   REMARKS
BLOOMINGTON    CLOUDY    76  71  85 SW12      29.75F
MADISON *+     CLOUDY    73  72  94 S8        29.81F
SEYMOUR +      CLOUDY    75  73  94 SW8       29.76F

$$





USA.gov is the U.S. government's official web portal to all federal, state and local government web resources and services.